{"data":{"norad_id":49154,"epoch":"2026-09-20T02:28:10.986816Z","epoch_age_seconds":75533,"freshness":"FRESH","line1":"1 49154U 21082AA  26263.10290494  .00001617  00000+0  14618-3 0  9991","line2":"2 49154  69.9990 145.6641 0002794 268.5025  91.5814 14.97527773276638","mean_motion":14.97527773,"eccentricity":0.0002794,"inclination_deg":69.999,"raan_deg":145.6641,"arg_perigee_deg":268.5025,"mean_anomaly_deg":91.5814,"bstar":0.00014618,"rev_number":27663,"period_min":96.158483733176,"perigee_km":572.59524183723,"apogee_km":576.48039652619,"semimajor_km":6952.6748191817,"source":"CELESTRAK","updated_at":"2026-09-20T09:00:39.250154Z"}}